| time (UTC) | temp F | wind direction | speed MPH | gust MPH | rain 1hr in | rain 24hr in | rain mn in | humidity % | barometer mb |
| 20260504042033 | 64 | 149 | 5.0 | 11.0 | 0.00 | 0.00 | 0.00 | 70 | 1017.5 |
| 20260504041544 | 65 | 166 | 5.0 | 11.0 | 0.00 | 0.00 | 0.00 | 70 | 1017.6 |
| 20260504041033 | 65 | 138 | 5.0 | 9.0 | 0.00 | 0.00 | 0.00 | 69 | 1017.6 |
| 20260504040535 | 65 | 151 | 4.0 | 8.0 | 0.00 | 0.00 | 0.00 | 67 | 1017.7 |
| 20260504040055 | 65 | 134 | 2.0 | 6.0 | 0.00 | 0.00 | 0.00 | 67 | 1017.7 |
| 20260504035533 | 65 | 134 | 3.0 | 6.0 | 0.00 | 0.00 | 0.00 | 66 | 1017.7 |
| 20260504035034 | 65 | 153 | 4.0 | 10.0 | 0.00 | 0.00 | 0.00 | 66 | 1017.7 |
| 20260504034555 | 65 | 153 | 4.0 | 10.0 | 0.00 | 0.00 | 0.00 | 66 | 1017.7 |
| 20260504034037 | 65 | 164 | 4.0 | 11.0 | 0.00 | 0.00 | 0.00 | 66 | 1017.7 |
| 20260504033533 | 65 | 155 | 5.0 | 11.0 | 0.00 | 0.00 | 0.00 | 66 | 1017.6 |
| 20260504033056 | 64 | 155 | 5.0 | 9.0 | 0.00 | 0.00 | 0.00 | 66 | 1017.6 |
| 20260504032537 | 64 | 139 | 4.0 | 7.0 | 0.00 | 0.00 | 0.00 | 67 | 1017.6 |
| 20260504032035 | 64 | 155 | 3.0 | 7.0 | 0.00 | 0.00 | 0.00 | 67 | 1017.8 |
| 20260504031600 | 63 | 164 | 3.0 | 8.0 | 0.00 | 0.00 | 0.00 | 68 | 1017.6 |
| 20260504031033 | 63 | 144 | 3.0 | 8.0 | 0.00 | 0.00 | 0.00 | 69 | 1017.4 |
| 20260504030533 | 63 | 162 | 4.0 | 8.0 | 0.00 | 0.00 | 0.00 | 70 | 1017.4 |
| 20260504030106 | 63 | 157 | 2.0 | 6.0 | 0.00 | 0.00 | 0.00 | 71 | 1017.4 |
| 20260504025533 | 63 | 143 | 2.0 | 5.0 | 0.00 | 0.00 | 0.00 | 72 | 1017.4 |
| 20260504025036 | 63 | 154 | 2.0 | 4.0 | 0.00 | 0.00 | 0.00 | 74 | 1017.3 |
| 20260504024553 | 63 | 162 | 2.0 | 4.0 | 0.00 | 0.00 | 0.00 | 75 | 1017.4 |
| 20260504024033 | 64 | 169 | 2.0 | 3.0 | 0.00 | 0.00 | 0.00 | 74 | 1017.3 |
| 20260504023534 | 64 | 189 | 2.0 | 3.0 | 0.00 | 0.00 | 0.00 | 74 | 1017.3 |
| 20260504023049 | 64 | 189 | 1.0 | 2.0 | 0.00 | 0.00 | 0.00 | 73 | 1017.2 |
| 20260504022535 | 64 | 189 | 0.0 | 2.0 | 0.00 | 0.00 | 0.00 | 72 | 1017.3 |
| 20260504022034 | 65 | 189 | 1.0 | 2.0 | 0.00 | 0.00 | 0.00 | 72 | 1017.4 |
| 20260504021547 | 65 | 189 | 1.0 | 2.0 | 0.00 | 0.00 | 0.00 | 71 | 1017.4 |
| 20260504021033 | 65 | 189 | 0.0 | 1.0 | 0.00 | 0.00 | 0.00 | 71 | 1017.3 |
| 20260504020533 | 66 | 0 | 0.0 | 0.0 | 0.00 | 0.00 | 0.00 | 70 | 1017.4 |
| 20260504020048 | 66 | 0 | 0.0 | 1.0 | 0.00 | 0.00 | 0.00 | 70 | 1017.4 |
| 20260504015533 | 67 | 0 | 0.0 | 1.0 | 0.00 | 0.00 | 0.00 | 68 | 1017.3 |
| 20260504015035 | 67 | 0 | 0.0 | 1.0 | 0.00 | 0.00 | 0.00 | 67 | 1017.1 |
| 20260504014546 | 68 | 0 | 0.0 | 2.0 | 0.00 | 0.00 | 0.00 | 66 | 1017.0 |
| 20260504014033 | 69 | 0 | 0.0 | 2.0 | 0.00 | 0.00 | 0.00 | 65 | 1017.0 |
| 20260504013533 | 69 | 0 | 0.0 | 2.0 | 0.00 | 0.00 | 0.00 | 63 | 1017.0 |
| 20260504013044 | 70 | 189 | 1.0 | 2.0 | 0.00 | 0.00 | 0.00 | 62 | 1017.0 |
| 20260504012533 | 70 | 189 | 1.0 | 3.0 | 0.00 | 0.00 | 0.00 | 61 | 1016.9 |
| 20260504012034 | 71 | 189 | 1.0 | 3.0 | 0.00 | 0.00 | 0.00 | 58 | 1016.8 |
| 20260504011548 | 72 | 189 | 2.0 | 3.0 | 0.00 | 0.00 | 0.00 | 56 | 1016.8 |
| 20260504011037 | 72 | 174 | 1.0 | 3.0 | 0.00 | 0.00 | 0.00 | 55 | 1016.8 |
| 20260504010533 | 72 | 163 | 2.0 | 4.0 | 0.00 | 0.00 | 0.00 | 51 | 1016.9 |
| 20260504010045 | 73 | 163 | 2.0 | 4.0 | 0.00 | 0.00 | 0.00 | 48 | 1016.8 |
| 20260504005535 | 73 | 172 | 2.0 | 5.0 | 0.00 | 0.00 | 0.00 | 48 | 1016.8 |
| 20260504005036 | 73 | 164 | 2.0 | 5.0 | 0.00 | 0.00 | 0.00 | 47 | 1016.9 |
| 20260504004548 | 73 | 180 | 2.0 | 5.0 | 0.00 | 0.00 | 0.00 | 46 | 1017.0 |
| 20260504004033 | 73 | 216 | 2.0 | 6.0 | 0.00 | 0.00 | 0.00 | 46 | 1017.0 |
| 20260504003533 | 73 | 150 | 2.0 | 6.0 | 0.00 | 0.00 | 0.00 | 46 | 1017.0 |
| 20260504003046 | 73 | 135 | 3.0 | 6.0 | 0.00 | 0.00 | 0.00 | 46 | 1016.9 |
| 20260504002533 | 74 | 143 | 3.0 | 8.0 | 0.00 | 0.00 | 0.00 | 45 | 1017.1 |
| 20260504002033 | 74 | 164 | 4.0 | 9.0 | 0.00 | 0.00 | 0.00 | 45 | 1017.1 |
| 20260504001550 | 74 | 149 | 3.0 | 9.0 | 0.00 | 0.00 | 0.00 | 44 | 1017.1 |
| 20260504001033 | 74 | 145 | 5.0 | 9.0 | 0.00 | 0.00 | 0.00 | 43 | 1017.1 |
| 20260504000535 | 75 | 180 | 4.0 | 10.0 | 0.00 | 0.00 | 0.00 | 44 | 1017.1 |
| 20260504000113 | 75 | 147 | 4.0 | 10.0 | 0.00 | 0.00 | 0.00 | 43 | 1017.0 |
| 20260503235534 | 75 | 156 | 4.0 | 11.0 | 0.00 | 0.00 | 0.00 | 44 | 1017.1 |
| 20260503235037 | 75 | 113 | 6.0 | 12.0 | 0.00 | 0.00 | 0.00 | 42 | 1017.1 |
| 20260503234543 | 75 | 147 | 6.0 | 12.0 | 0.00 | 0.00 | 0.00 | 43 | 1017.1 |
| 20260503234035 | 76 | 138 | 6.0 | 12.0 | 0.00 | 0.00 | 0.00 | 43 | 1017.3 |
| 20260503233534 | 76 | 116 | 5.0 | 12.0 | 0.00 | 0.00 | 0.00 | 44 | 1017.3 |
| 20260503233048 | 76 | 116 | 3.0 | 14.0 | 0.00 | 0.00 | 0.00 | 44 | 1017.5 |
| 20260503232533 | 76 | 162 | 8.0 | 14.0 | 0.00 | 0.00 | 0.00 | 42 | 1017.5 |
| 20260503232036 | 76 | 147 | 6.0 | 14.0 | 0.00 | 0.00 | 0.00 | 43 | 1017.6 |
| 20260503231548 | 76 | 132 | 4.0 | 14.0 | 0.00 | 0.00 | 0.00 | 45 | 1017.6 |
| 20260503231036 | 76 | 176 | 6.0 | 15.0 | 0.00 | 0.00 | 0.00 | 41 | 1017.6 |
| 20260503230535 | 77 | 112 | 8.0 | 15.0 | 0.00 | 0.00 | 0.00 | 42 | 1017.6 |
| 20260503230053 | 77 | 139 | 6.0 | 16.0 | 0.00 | 0.00 | 0.00 | 44 | 1017.5 |
| 20260503225533 | 77 | 109 | 7.0 | 16.0 | 0.00 | 0.00 | 0.00 | 43 | 1017.6 |
| 20260503225033 | 77 | 142 | 7.0 | 14.0 | 0.00 | 0.00 | 0.00 | 40 | 1017.7 |
| 20260503224551 | 77 | 131 | 8.0 | 14.0 | 0.00 | 0.00 | 0.00 | 41 | 1017.7 |
| 20260503224034 | 77 | 128 | 7.0 | 14.0 | 0.00 | 0.00 | 0.00 | 42 | 1017.6 |
| 20260503223531 | 77 | 121 | 7.0 | 14.0 | 0.00 | 0.00 | 0.00 | 41 | 1017.6 |
| 20260503223045 | 77 | 138 | 4.0 | 14.0 | 0.00 | 0.00 | 0.00 | 42 | 1017.6 |
| 20260503222534 | 78 | 141 | 7.0 | 13.0 | 0.00 | 0.00 | 0.00 | 43 | 1017.8 |
| 20260503222033 | 77 | 110 | 6.0 | 13.0 | 0.00 | 0.00 | 0.00 | 41 | 1017.7 |
| 20260503221543 | 77 | 123 | 8.0 | 13.0 | 0.00 | 0.00 | 0.00 | 41 | 1017.8 |
| 20260503221034 | 78 | 151 | 9.0 | 15.0 | 0.00 | 0.00 | 0.00 | 42 | 1018.0 |
| 20260503220534 | 78 | 122 | 6.0 | 15.0 | 0.00 | 0.00 | 0.00 | 41 | 1018.0 |
| 20260503220052 | 78 | 136 | 8.0 | 14.0 | 0.00 | 0.00 | 0.00 | 42 | 1018.1 |
| 20260503215535 | 78 | 133 | 6.0 | 17.0 | 0.00 | 0.00 | 0.00 | 40 | 1018.3 |
| 20260503215037 | 78 | 158 | 6.0 | 17.0 | 0.00 | 0.00 | 0.00 | 39 | 1018.4 |
| 20260503214547 | 78 | 126 | 6.0 | 17.0 | 0.00 | 0.00 | 0.00 | 45 | 1018.5 |
| 20260503214033 | 78 | 177 | 5.0 | 12.0 | 0.00 | 0.00 | 0.00 | 43 | 1018.5 |
| 20260503213533 | 78 | 135 | 6.0 | 17.0 | 0.00 | 0.00 | 0.00 | 38 | 1018.5 |
| 20260503213044 | 77 | 160 | 5.0 | 18.0 | 0.00 | 0.00 | 0.00 | 40 | 1018.7 |
| 20260503212538 | 77 | 143 | 7.0 | 18.0 | 0.00 | 0.00 | 0.00 | 36 | 1018.9 |
| 20260503212033 | 78 | 154 | 7.0 | 15.0 | 0.00 | 0.00 | 0.00 | 38 | 1018.9 |
| 20260503211547 | 77 | 143 | 7.0 | 14.0 | 0.00 | 0.00 | 0.00 | 39 | 1019.0 |
| 20260503211031 | 78 | 128 | 7.0 | 15.0 | 0.00 | 0.00 | 0.00 | 37 | 1019.1 |
| 20260503210534 | 78 | 112 | 5.0 | 16.0 | 0.00 | 0.00 | 0.00 | 40 | 1019.3 |
| 20260503210044 | 77 | 205 | 7.0 | 16.0 | 0.00 | 0.00 | 0.00 | 41 | 1019.4 |
| 20260503205534 | 77 | 128 | 6.0 | 13.0 | 0.00 | 0.00 | 0.00 | 39 | 1019.5 |
| 20260503205036 | 78 | 226 | 7.0 | 13.0 | 0.00 | 0.00 | 0.00 | 38 | 1019.5 |
| 20260503204543 | 78 | 143 | 8.0 | 15.0 | 0.00 | 0.00 | 0.00 | 44 | 1019.6 |
| 20260503204034 | 78 | 110 | 5.0 | 15.0 | 0.00 | 0.00 | 0.00 | 39 | 1020.0 |
| 20260503203535 | 77 | 126 | 7.0 | 15.0 | 0.00 | 0.00 | 0.00 | 39 | 1019.9 |
| 20260503203050 | 76 | 108 | 8.0 | 15.0 | 0.00 | 0.00 | 0.00 | 39 | 1020.1 |
| 20260503202534 | 78 | 78 | 7.0 | 15.0 | 0.00 | 0.00 | 0.00 | 38 | 1020.2 |
| 20260503202035 | 78 | 120 | 8.0 | 14.0 | 0.00 | 0.00 | 0.00 | 41 | 1020.2 |
| 20260503201549 | 78 | 152 | 8.0 | 14.0 | 0.00 | 0.00 | 0.00 | 39 | 1020.3 |
| 20260503201036 | 78 | 162 | 7.0 | 14.0 | 0.00 | 0.00 | 0.00 | 39 | 1020.4 |
| 20260503200534 | 78 | 147 | 5.0 | 14.0 | 0.00 | 0.00 | 0.00 | 39 | 1020.5 |
| 20260503200048 | 78 | 163 | 6.0 | 16.0 | 0.00 | 0.00 | 0.00 | 41 | 1020.6 |
| 20260503195536 | 76 | 143 | 3.0 | 16.0 | 0.00 | 0.00 | 0.00 | 40 | 1020.6 |
| 20260503195033 | 78 | 121 | 8.0 | 17.0 | 0.00 | 0.00 | 0.00 | 40 | 1020.9 |
| 20260503194552 | 78 | 146 | 8.0 | 17.0 | 0.00 | 0.00 | 0.00 | 43 | 1020.9 |
| 20260503194034 | 78 | 155 | 7.0 | 16.0 | 0.00 | 0.00 | 0.00 | 39 | 1021.0 |
| 20260503193536 | 78 | 88 | 10.0 | 16.0 | 0.00 | 0.00 | 0.00 | 44 | 1021.1 |
| 20260503193046 | 77 | 197 | 8.0 | 16.0 | 0.00 | 0.00 | 0.00 | 40 | 1021.1 |
| 20260503192534 | 78 | 128 | 8.0 | 16.0 | 0.00 | 0.00 | 0.00 | 43 | 1021.1 |
| 20260503192033 | 77 | 105 | 7.0 | 14.0 | 0.00 | 0.00 | 0.00 | 44 | 1021.1 |
| 20260503191543 | 76 | 151 | 6.0 | 11.0 | 0.00 | 0.00 | 0.00 | 42 | 1021.0 |
| 20260503191035 | 77 | 147 | 3.0 | 13.0 | 0.00 | 0.00 | 0.00 | 43 | 1021.0 |
| 20260503190535 | 76 | 110 | 5.0 | 14.0 | 0.00 | 0.00 | 0.00 | 42 | 1021.3 |
| 20260503190042 | 77 | 110 | 7.0 | 14.0 | 0.00 | 0.00 | 0.00 | 44 | 1021.5 |
| 20260503185533 | 77 | 155 | 9.0 | 14.0 | 0.00 | 0.00 | 0.00 | 45 | 1021.6 |
| 20260503185034 | 76 | 126 | 7.0 | 16.0 | 0.00 | 0.00 | 0.00 | 43 | 1021.7 |
| 20260503184605 | 76 | 184 | 5.0 | 16.0 | 0.00 | 0.00 | 0.00 | 43 | 1021.8 |
| 20260503184034 | 76 | 114 | 9.0 | 16.0 | 0.00 | 0.00 | 0.00 | 48 | 1021.9 |
| 20260503183534 | 76 | 97 | 8.0 | 14.0 | 0.00 | 0.00 | 0.00 | 44 | 1021.9 |
| 20260503183051 | 76 | 93 | 7.0 | 14.0 | 0.00 | 0.00 | 0.00 | 46 | 1022.0 |
| 20260503182533 | 75 | 130 | 5.0 | 14.0 | 0.00 | 0.00 | 0.00 | 45 | 1022.1 |
| 20260503182034 | 75 | 107 | 5.0 | 13.0 | 0.00 | 0.00 | 0.00 | 49 | 1022.1 |
| 20260503181554 | 75 | 72 | 5.0 | 12.0 | 0.00 | 0.00 | 0.00 | 48 | 1022.2 |
| 20260503181035 | 75 | 174 | 5.0 | 12.0 | 0.00 | 0.00 | 0.00 | 49 | 1022.2 |
| 20260503180535 | 76 | 143 | 4.0 | 11.0 | 0.00 | 0.00 | 0.00 | 52 | 1022.4 |
| 20260503180047 | 75 | 141 | 6.0 | 15.0 | 0.00 | 0.00 | 0.00 | 50 | 1022.4 |
| 20260503175534 | 75 | 196 | 7.0 | 15.0 | 0.00 | 0.00 | 0.00 | 48 | 1022.6 |
| 20260503175037 | 75 | 124 | 6.0 | 13.0 | 0.00 | 0.00 | 0.00 | 54 | 1022.7 |
| 20260503174548 | 74 | 111 | 3.0 | 12.0 | 0.00 | 0.00 | 0.00 | 50 | 1022.8 |
| 20260503174034 | 75 | 153 | 5.0 | 12.0 | 0.00 | 0.00 | 0.00 | 51 | 1022.9 |
| 20260503173536 | 75 | 96 | 7.0 | 14.0 | 0.00 | 0.00 | 0.00 | 51 | 1022.9 |
| 20260503173048 | 75 | 110 | 5.0 | 14.0 | 0.00 | 0.00 | 0.00 | 48 | 1023.1 |
| 20260503172535 | 75 | 156 | 5.0 | 14.0 | 0.00 | 0.00 | 0.00 | 53 | 1023.1 |
| 20260503172037 | 74 | 101 | 6.0 | 14.0 | 0.00 | 0.00 | 0.00 | 51 | 1023.1 |
| 20260503171609 | 74 | 119 | 3.0 | 14.0 | 0.00 | 0.00 | 0.00 | 46 | 1023.4 |
| 20260503171035 | 74 | 133 | 8.0 | 14.0 | 0.00 | 0.00 | 0.00 | 51 | 1023.5 |
| 20260503170537 | 73 | 132 | 2.0 | 13.0 | 0.00 | 0.00 | 0.00 | 52 | 1023.5 |
| 20260503150533 | 68 | 234 | 4.0 | 9.0 | 0.00 | 0.00 | 0.00 | 62 | 1024.0 |
| 20260503131035 | 51 | 0 | 0.0 | 2.0 | 0.00 | 0.00 | 0.00 | 93 | 1023.1 |
| 20260503130534 | 51 | 0 | 0.0 | 3.0 | 0.00 | 0.00 | 0.00 | 92 | 1023.1 |
| 20260503110535 | 50 | 241 | 1.0 | 2.0 | 0.00 | 0.00 | 0.00 | 90 | 1022.0 |
| 20260503081550 | 51 | 253 | 0.0 | 1.0 | 0.00 | 0.00 | 0.00 | 87 | 1021.8 |
| 20260503081034 | 51 | 0 | 0.0 | 1.0 | 0.00 | 0.00 | 0.00 | 88 | 1021.8 |
| 20260503080537 | 51 | 0 | 0.0 | 1.0 | 0.00 | 0.00 | 0.00 | 88 | 1021.9 |
| 20260503072533 | 52 | 0 | 0.0 | 2.0 | 0.00 | 0.00 | 0.00 | 87 | 1022.3 |
| 20260503072035 | 52 | 253 | 0.0 | 2.0 | 0.00 | 0.00 | 0.00 | 87 | 1022.3 |
| 20260503071604 | 52 | 0 | 0.0 | 2.0 | 0.00 | 0.00 | 0.00 | 87 | 1022.4 |
| 20260503071033 | 52 | 253 | 0.0 | 2.0 | 0.00 | 0.00 | 0.00 | 87 | 1022.4 |
| 20260503070533 | 52 | 0 | 0.0 | 2.0 | 0.00 | 0.00 | 0.00 | 87 | 1022.5 |
| 20260503055033 | 54 | 0 | 0.0 | 4.0 | 0.00 | 0.00 | 0.00 | 84 | 1022.7 |
| 20260503054557 | 54 | 0 | 1.0 | 4.0 | 0.00 | 0.00 | 0.00 | 84 | 1022.9 |
| 20260503054033 | 54 | 0 | 0.0 | 2.0 | 0.00 | 0.00 | 0.00 | 84 | 1022.8 |
| 20260503053533 | 54 | 118 | 0.0 | 2.0 | 0.00 | 0.00 | 0.00 | 83 | 1022.8 |
| 20260503053049 | 54 | 118 | 0.0 | 2.0 | 0.00 | 0.00 | 0.00 | 83 | 1022.7 |
| 20260503052533 | 54 | 118 | 0.0 | 2.0 | 0.00 | 0.00 | 0.00 | 83 | 1022.7 |
| 20260503052034 | 55 | 118 | 0.0 | 2.0 | 0.00 | 0.00 | 0.00 | 83 | 1022.7 |
| 20260503051545 | 55 | 0 | 0.0 | 0.0 | 0.00 | 0.00 | 0.00 | 82 | 1022.7 |
| 20260503051032 | 55 | 0 | 0.0 | 0.0 | 0.00 | 0.00 | 0.00 | 82 | 1022.7 |
| 20260503050534 | 55 | 0 | 0.0 | 0.0 | 0.00 | 0.00 | 0.00 | 82 | 1022.6 |
| 20260503050050 | 55 | 0 | 0.0 | 0.0 | 0.00 | 0.00 | 0.00 | 82 | 1022.5 |
| 20260503045534 | 56 | 0 | 0.0 | 0.0 | 0.00 | 0.00 | 0.00 | 81 | 1022.5 |
| 20260503045035 | 56 | 0 | 0.0 | 0.0 | 0.00 | 0.00 | 0.00 | 81 | 1022.4 |
| 20260503044553 | 56 | 0 | 0.0 | 0.0 | 0.00 | 0.00 | 0.00 | 81 | 1022.5 |
| 20260503044033 | 56 | 0 | 0.0 | 0.0 | 0.00 | 0.00 | 0.00 | 81 | 1022.6 |
| 20260503043533 | 57 | 0 | 0.0 | 0.0 | 0.00 | 0.00 | 0.00 | 80 | 1022.5 |
| 20260503043048 | 57 | 0 | 0.0 | 0.0 | 0.00 | 0.00 | 0.00 | 80 | 1022.5 |
| 20260503042533 | 57 | 0 | 0.0 | 0.0 | 0.00 | 0.00 | 0.00 | 80 | 1022.5 |